Weather History for Lancaster, PA

Change the Weather History Date:

Monday, June 16, 2014

  Actual Average Record
Temperature  
Mean Temperature 70 °F -  
Max Temperature 86 °F 84 °F 94 °F (1981)
Min Temperature 55 °F 60 °F 46 °F (1984)
Cooling Degree Days 6    
Growing Degree Days 20 (Base 50)    
Moisture  
Dew Point 59 °F    
Average Humidity 65    
Maximum Humidity 93    
Minimum Humidity 40    
Precipitation  
Precipitation 0.00 in - - ()
Sea Level Pressure  
Sea Level Pressure 30.10 in    
Wind  
Wind Speed 2 mph (SSE)    
Max Wind Speed 9 mph    
Max Gust Speed -    
Visibility 10 miles    
Events      
Averages and records for this station are not official NWS values.
T = Trace of Precipitation, MM = Missing Value Source: NWS Daily Summary

Daily Weather History Graph

Daily Weather History Graph

Search for Another Location

Airport:

Trip Planner

Search our weather history database for the weather conditions in past years. The results will help you decide how hot, cold, wet, or windy it might be!

Date:

Astronomy

Jun. 16, 2014 Rise Set
Actual Time 5:35 AM EDT 8:36 PM EDT
Civil Twilight 5:02 AM EDT 9:09 PM EDT
Nautical Twilight 4:20 AM EDT 9:51 PM EDT
Astronomical Twilight 3:31 AM EDT 10:40 PM EDT
Moon 11:26 PM EDT (6/16) 9:36 AM EDT (6/16)
Length of Visible Light 16h 06m
Length of Day
15h 01m
Waning Gibbous, 83% of the Moon is Illuminated
Jun 16
Waning Gibbous
Jun 19
Last Quarter
Jun 27
New
Jul 5
First Quarter
Jul 12
Full

Hourly Weather History & Observations

Time (EDT) Temp. Heat Index Dew Point Humidity Pressure Visibility Wind Dir Wind Speed Gust Speed Precip Events Conditions
12:53 AM 61.0 °F - 55.0 °F 81% 30.12 in 10.0 mi Calm Calm - N/A   Clear
1:53 AM 61.0 °F - 55.0 °F 81% 30.12 in 10.0 mi Calm Calm - N/A   Clear
2:53 AM 57.9 °F - 55.0 °F 90% 30.12 in 10.0 mi Calm Calm - N/A   Clear
3:53 AM 57.0 °F - 55.0 °F 93% 30.12 in 10.0 mi East 3.5 mph - N/A   Clear
4:53 AM 55.9 °F - 53.1 °F 90% 30.13 in 10.0 mi Calm Calm - N/A   Clear
5:53 AM 55.9 °F - 54.0 °F 93% 30.13 in 9.0 mi ENE 3.5 mph - N/A   Clear
6:53 AM 59.0 °F - 55.9 °F 90% 30.15 in 6.0 mi Calm Calm - N/A   Clear
7:53 AM 64.0 °F - 57.0 °F 78% 30.15 in 10.0 mi Calm Calm - N/A   Clear
8:53 AM 69.1 °F - 57.9 °F 68% 30.16 in 10.0 mi Calm Calm - N/A   Clear
9:53 AM 73.9 °F - 60.1 °F 62% 30.15 in 10.0 mi SE 3.5 mph - N/A   Clear
10:53 AM 78.1 °F - 61.0 °F 56% 30.14 in 10.0 mi ESE 5.8 mph - N/A   Clear
11:53 AM 80.1 °F 81.1 °F 61.0 °F 52% 30.13 in 10.0 mi SE 4.6 mph - N/A   Clear
12:53 PM 82.9 °F 82.8 °F 59.0 °F 44% 30.12 in 10.0 mi Calm Calm - N/A   Clear
1:53 PM 84.0 °F 83.3 °F 57.0 °F 40% 30.10 in 10.0 mi Calm Calm - N/A   Clear
2:53 PM 84.0 °F 83.5 °F 57.9 °F 41% 30.09 in 10.0 mi Variable 3.5 mph - N/A   Scattered Clouds
3:53 PM 86.0 °F 85.4 °F 59.0 °F 40% 30.07 in 10.0 mi Variable 5.8 mph - N/A   Clear
4:53 PM 86.0 °F 86.1 °F 61.0 °F 43% 30.05 in 10.0 mi WNW 6.9 mph - N/A   Clear
5:53 PM 84.0 °F 84.0 °F 60.1 °F 44% 30.04 in 10.0 mi SW 5.8 mph - N/A   Clear
6:53 PM 82.9 °F 84.4 °F 64.0 °F 53% 30.04 in 10.0 mi SSW 8.1 mph - N/A   Clear
7:53 PM 81.0 °F 82.7 °F 64.9 °F 58% 30.04 in 10.0 mi South 9.2 mph - N/A   Mostly Cloudy
9:53 PM 77.0 °F - 61.0 °F 58% 30.06 in 10.0 mi South 6.9 mph - N/A   Partly Cloudy
10:53 PM 77.0 °F - 61.0 °F 58% 30.08 in 10.0 mi Calm Calm - N/A   Clear
11:53 PM 73.0 °F - 63.0 °F 71% 30.06 in 10.0 mi Calm Calm - N/A   Clear